Location: Unspecified
(0.0000°N, 0.0000°E)
Time: 16:09:17
(UTC+02:00)

Transit 2A - Visible Passes

Search period start: 31 May 2016 00:00
Search period end: 10 June 2016 00:00
Orbit: 593 x 967 km, 66.7° (Epoch: 30 May)

Date Brightness Start Highest point End Pass type
(mag) Time Alt. Az. Time Alt. Az. Time Alt. Az.
31 May 6.3 06:53:01 24° WSW 06:55:09 38° WNW 06:59:41 10° N visible
01 Jun 5.5 06:20:43 64° WSW 06:21:13 71° WNW 06:26:05 10° NNE visible
02 Jun 6.5 05:48:21 49° NE 05:48:21 49° NE 05:52:08 10° NNE visible
03 Jun 8.1 05:15:56 21° ENE 05:15:56 21° ENE 05:17:49 10° NE visible
03 Jun 7.8 06:56:29 11° WNW 06:56:30 11° WNW 06:57:43 10° NW visible
04 Jun 7.6 06:23:59 17° NW 06:23:59 17° NW 06:26:00 10° NNW visible
05 Jun 7.8 05:51:27 18° NNW 05:51:27 18° NNW 05:52:58 10° N visible
06 Jun 8.4 05:18:51 13° N 05:18:51 13° N 05:19:27 10° N visible
